Regional Weather Roundup
Issued by NWS

Home | Current Version | Previous Version | Graphics & Text | Print | Product List | Glossary On
Versions: 1 2 3 4 5 6 7 8 9 10 11 12 13 14 15 16 17 18 19 20 21 22 23 24 25 26 27 28 29 30 31 32 33 34 35 36 37 38 39 40 41 42 43 44 45 46 47 48 49 50
000
ASUS43 KLMK 181202
RWRKY
KENTUCKY REGIONAL WEATHER ROUNDUP
NATIONAL WEATHER SERVICE LOUISVILLE KY
800 AM EDT SAT APR 18 2015

NOTE "FAIR" INDICATES FEW OR NO CLOUDS BELOW 12,000 FEET
WITH NO SIGNIFICANT WEATHER AND/OR OBSTRUCTIONS TO VISIBILITY.

KYZ001>023-026-027-061>063-070>075-181300-
WESTERN AND SOUTH CENTRAL KENTUCKY

CITY           SKY/WX    TMP DP  RH WIND       PRES   REMARKS
PADUCAH        MOCLDY    57  55  93 CALM      30.01R FOG
HENDERSON      CLOUDY    54  52  94 CALM      30.02S
OWENSBORO      FOG       56  56 100 CALM      30.04R VSB 1/4
HOPKINSVILLE   CLOUDY    55  54  98 NE5       30.01F
BOWLING GREEN  PTCLDY    54  52  93 CALM      30.04S FOG
GLASGOW        NOT AVBL
$$

KYZ024-025-028>034-038-045-046-053-181300-
NORTH CENTRAL KENTUCKY

CITY           SKY/WX    TMP DP  RH WIND       PRES   REMARKS
LOUISVILLE/SDF PTSUNNY   59  55  87 CALM      30.05R
LOUISVILLE/LOU SUNNY     55  53  93 CALM      30.05R
FORT KNOX      PTCLDY    57  56  95 NE2       30.03S FOG
$$

KYZ035>037-039>044-047>052-055>060-089>105-181300-
NORTHEAST KENTUCKY

CITY           SKY/WX    TMP DP  RH WIND       PRES   REMARKS
LEXINGTON      SUNNY     55  53  93 CALM      30.05R
COVINGTON      MOSUNNY   54  47  77 N3        30.06R
FRANKFORT      SUNNY     51  49  92 CALM      30.04R
$$

KYZ054-064>069-076>088-106>120-181300-
SOUTHEAST KENTUCKY

CITY           SKY/WX    TMP DP  RH WIND       PRES   REMARKS
JACKSON        SUNNY     59  50  72 CALM      30.05R
LONDON         SUNNY     56  51  84 CALM      30.05R
SOMERSET       NOT AVBL
MIDDLESBORO    NOT AVBL
MONTICELLO     FOG       53  53 100 CALM      30.07S VSB<1/4
$$




USA.gov is the U.S. government's official web portal to all federal, state and local government web resources and services.